Regional Weather Roundup
Issued by NWS Wakefield, VA

Home | Current Version | Previous Version | Graphics & Text | Print | Product List | Glossary On
Versions: 1 2 3 4 5 6 7 8 9 10 11 12 13 14 15 16 17 18 19 20 21 22 23 24 25 26 27 28 29 30 31 32 33 34 35 36 37 38 39 40 41 42 43 44 45 46 47 48 49
392
ASUS41 KAKQ 271515
RWRAKQ

REGIONAL WEATHER ROUNDUP
NATIONAL WEATHER SERVICE WAKEFIELD VA
1100 AM EDT SAT AUG 27 2016

Note: "fair" indicates few or no clouds below 12,000 feet with no
significant weather and/or obstructions to visibility. * = Denotes
station may not report precipitation (e.g., rain,snow,etc.),
thunder or fog.

VAZ042-051-052>054-056-271600-
NORTHERN VIRGINIA

CITY           SKY/WX    TMP DP  RH WIND       PRES   REMARKS
WASH NATIONAL  MOSUNNY   87  67  51 E15       30.18S
DULLES         MOSUNNY   87  65  47 E10       30.19R
FORT BELVOIR   SUNNY     87  67  51 SE7       30.17S
QUANTICO       SUNNY     87  69  54 E7        30.18R
FREDERICKSBRG* SUNNY     87  66  49 E12       30.16S
STAFFORD*      SUNNY     87  65  47 E9        30.22R
WARRENTON      SUNNY     87  64  46 SE6       30.18S
CULPEPER*      SUNNY     86  72  61 E3        30.19S
MANASSAS*      SUNNY     86  68  54 E5        30.18S
LEESBURG*      SUNNY     86  70  58 NE7       30.21S
WINCHESTER     SUNNY     82  66  57 E3        30.21S
FRONT ROYAL*   FAIR      81  70  69 NE3       30.20S
LURAY*         FAIR      82  68  61 CALM      30.21S
$$

VAZ048-049-060>072-079>083-271600-
CENTRAL AND SOUTH CENTRAL VIRGINIA

CITY           SKY/WX    TMP DP  RH WIND       PRES   REMARKS
RICHMOND       MOSUNNY   88  69  53 E9        30.15S
CHESTERFIELD*  FAIR      90  63  40 NE9       30.16S
PETERSBURG*    MOSUNNY   92  70  49 E10       30.15S HX  98
HANOVER        SUNNY     87  69  54 E9        30.18R
TAPPAHANNOCK*  SUNNY     88  64  43 NE12      30.17S
QUINTON*       FAIR      89  72  58 E6G18     30.15S HX  95
CHARLOTTSVILLE SUNNY     87  69  54 NE7       30.19S
GORDONSVILLE*  NOT AVBL
ORANGE*          N/A     86  72  62 CALM      30.20S
LOUISA*        MOSUNNY   90  75  62 NE6       30.17S HX 100
BUMPASS*       FAIR      86  73  64 NE6       30.17S
FARMVILLE*     SUNNY     91  74  58 NE7       30.15S HX 100
CREWE*         FAIR      88  74  63 E7        30.15S HX  97
FORT PICKETT*  NOT AVBL
CHASE CITY*    FAIR      89  74  62 NE3       30.14S HX  98
CLARKSVILLE*   FAIR      88  75  66 NE5       30.13F HX  97
SOUTH HILL*    SUNNY     88  77  70 E5        30.20S HX  99
LAWRENCEVILLE* FAIR      89  74  62 E7        30.14S HX  98
EMPORIA*       SUNNY     88  73  62 NE8       30.14F HX  96
$$

VAZ088>098-271600-
SOUTHEAST VIRGINIA

CITY           SKY/WX    TMP DP  RH WIND       PRES   REMARKS
NORFOLK        SUNNY     85  72  65 NE12      30.13S
VIRGINIA BEACH MOSUNNY   91  72  53 E6        30.12S HX  98
NORFOLK NAVAL  MOSUNNY   88  71  57 E9        30.15R
WEST POINT*    SUNNY     89  66  46 E8        30.16S
SALUDA*        FAIR      85  72  65 E6        30.15S
NEWPORT NEWS   SUNNY     88  70  55 E10       30.14S
LANGLEY AFB    SUNNY     87  71  58 NE12      30.13S
FORT EUSTIS    SUNNY     91  70  51 E8        30.12R HX  96
WILLIAMSBURG*  SUNNY     91  72  52 NE3       30.15S HX  98
HR EXEC AP*    FAIR      91  72  52 E9        30.14S HX  98
FRANKLIN*      SUNNY     90  72  55 NE10      30.13S HX  97
US460-WAKEFLD  SUNNY     89  72  56 VRB5      30.13S HX  96
$$

VAZ020-022-025-037-045-271600-
WEST CENTRAL AND SOUTHWEST VIRGINIA

CITY           SKY/WX    TMP DP  RH WIND       PRES   REMARKS
STAUNTON*      MOSUNNY   81  69  66 CALM      30.24S
WAYNESBORO*    FAIR      81  71  71 E5        30.24S
HOT SPRINGS VA PTSUNNY   73  64  73 E8        30.35S
LYNCHBURG      PTSUNNY   85  72  65 E7        30.20R
DANVILLE       SUNNY     86  75  69 NE5       30.15S HX  95
SOUTH BOSTON*  FAIR      88  77  69 CALM      30.14F HX 100
MARTINSVILLE   MOSUNNY   84  72  67 NE6       30.21S
ROANOKE        SUNNY     85  72  65 NE5       30.22S
BLACKSBURG     SUNNY     81  72  73 E8        30.29S
DUBLIN*        SUNNY     79  74  85 SE3       30.27S
MARION*        SUNNY     81  70  70 E6        30.30S
HILLSVILLE*    SUNNY     78  72  81 E5        30.27F
RICHLANDS*     FAIR      82  71  69 SE7       30.26S
WISE*          SUNNY     82  57  42 S5        30.27S
ABINGDON*      SUNNY     84  70  61 SE5       30.23S
$$

MDZ021>025-VAZ099-100-271600-
SOUTHERN MARYLAND AND THE DELMARVA PENINSULA

CITY           SKY/WX    TMP DP  RH WIND       PRES   REMARKS
PATUXENT RIVER MOSUNNY   85  65  51 E8        30.17R
BAY BRIDGE APT SUNNY     84  68  58 E7        30.18S
LEONARDTOWN    SUNNY     82  64  54 E5        30.19R
DOVER          SUNNY     82  71  67 NE7       30.17S
GEORGETOWN     NOT AVBL
EASTON         SUNNY     86  72  62 E6        30.21S
CAMBRIDGE      SUNNY     82  64  54 NE6       30.17S
SALISBURY      SUNNY     85  63  47 E12       30.16S
OCEAN CITY     SUNNY     84  69  60 NE8       30.16R
WALLOPS ISLAND SUNNY     84  62  47 NE17      30.15F
ACCOMACK*      SUNNY     86  67  53 NE14      30.15R
$$

NCZ012>017-030>032-271600-
NORTH CENTRAL AND EASTERN NORTH CAROLINA

CITY           SKY/WX    TMP DP  RH WIND       PRES   REMARKS
ROANOKE RAPIDS FAIR      86  77  74 E5        30.12F HX  97
RALEIGH        MOSUNNY   90  74  59 NE8       30.13S HX  99
ELIZABETH CITY SUNNY     88  76  67 N5        30.12S HX  99
AHOSKIE*       SUNNY     85  76  75 CALM      30.12F HX  95
EDENTON*       SUNNY     88  74  63 N5        30.12F HX  97
CURRITUCK*       N/A     88  74  64 E7        30.13R HX  97
KILL DEVIL HLS MOSUNNY   89  80  75 N6        30.11S HX 105
MANTEO         SUNNY     84  77  79 N7        30.12S
CAPE HATTERAS  SUNNY     85  75  72 NW5       30.11S
TARBORO*       PTSUNNY   83  77  80 CALM      30.13S
GOLDSBORO      MOSUNNY   88  75  64 CALM      30.11S HX  97
WASHINGTON     SUNNY     85  74  69 W3        30.12S
GREENVILLE     MOSUNNY   88  73  62 CALM      30.13F HX  96
NEW BERN       PTSUNNY   85  72  65 E3        30.13S
WILMINGTON     SUNNY     86  74  67 NE7       30.11S
$$

VAZ048-271600-
ELSEWHERE

CITY           SKY/WX    TMP DP  RH WIND       PRES   REMARKS
HARRISBURG PA  PTSUNNY   84  68  58 E6        30.20F
BALTIMORE      MOSUNNY   85  65  51 E12       30.19R
ANNAPOLIS      SUNNY     83  68  60 SE8       30.18S
ANDREWS AFB    SUNNY     85  66  52 E10       30.18R
PHILADELPHIA   MOSUNNY   85  60  42 E10       30.18F
HENDERSON NC   SUNNY     85  74  68 NE3       30.14S
GREENSBORO     SUNNY     87  73  62 NE9       30.16S
ROCKY MOUNT    MOSUNNY   87  77  72 E6        30.13R HX  99
$$

VAZ100-271600-
MARINE

STATION/POSITION TIME  TEMP    WIND        PRES    WAVE   SWELL
                       AIR SEA DIR/SP/G            HT/PER HT/PER
                 (UTC) (F)     (DEG/KT/KT) (MB)    (FT/S) (FT/S)
BRANDYWINE LGT   1400   78      50/ 12/ 13   N/A
CAPE MAY NJ      1400   84 76   60/  5/  8 1020.9R
LEWES DE         1400   78 76   70/ 12/ 15 1021.5R
OCEAN-CITY-INLET 1400   80 72   70/  6/ 11 1021.5R
WACHAPREAGUE VA  1400   83 83   50/ 13/ 18 1020.8R
THOMAS POINT MD  1500   81 83   90/ 10/ 11 1023.3S
GOOSES REEF MD   1500   83 82   80/  8/ 10 1022.2R   1/ 3
COVE POINT MD    1400   81     100/ 10/ 12 1021.9R
SOLOMONS ISLAND  1400   82 84   80/ 10/ 13   N/A
PINEY POINT MD   1400          100/ 11/ 12   N/A
POTOMAC MD       1500   83 83   80/ 12/ 14 1020.4R   2/ 3
CAMBRIDGE MD     1400   81 84   70/  9/ 11 1020.8R
LEWISETTA VA     1400   81 83   90/ 12/ 14 1020.8R
RAPPAHANNOCK LGT 1400           40/  7/  8 1021.3R
STINGRAY PT      1500   82 84  340/ 10/ 10 1021.5R   2/ 3
YORK RVR RNG VA  1400   83      60/ 12/ 13 1020.1R
YORKTOWN VA      1400   83 83   60/ 12/ 14 1020.3R
JAMESTOWN VA     1500   87 86   70/  6/ 12   N/A     0
DOMINION TERM VA 1400   83      80/  9/ 12 1020.3R
KIPTOPEKE VA     1400      81   60/ 10/ 14   N/A
CHES BAY BRIDGE  1400   81 81   30/  8/  9 1020.0R
CAPE HENRY VA    1400   80      30/ 11/ 13   N/A
WILLOUBY STN VA  1400   82      50/  9/ 10   N/A
CAPE HENRY BUOY  1412      79                N/A     2/10
1ST LANDING BUOY 1500   80 79   60/ 12/ 14 1020.2R   1/ 3
CAPE CHARLES BUO 1426      78                N/A     2/11
OFFSHORE WE BUOY 1421      80                N/A     2/11   2/11
64NM E OF VA BCH 1450   80 80   10/  8/ 10 1019.4S   2/ 7   2/ 7
DUCK PIER NC     1400   81 62  350/  5/  5 1019.2R
44100 DUCK FRF   1405      79                N/A     2/ 8
44056 DUCK FRF   1411      79                N/A     2/10   2/11
OREGON INLET NC  1400   83 82  270/  5/  6 1019.7R
HATTERAS NC      1400   81 83  310/  8/  9 1019.4R
DIAMOND SHLS NC  1450   82 85  360/  6/  6 1019.7F   2/10   2/10
CAPE LOOKOUT NC  1500   83      50/  5/  5 1019.4F
$$




USA.gov is the U.S. government's official web portal to all federal, state and local government web resources and services.